Location: Tokoinen
(61.6000°N, 23.0000°E)
Time: 13:38:39
(UTC+00:00)

Daily predictions for brighter satellites

Satellite Brightness Start Highest point End
(mag) Time Altitude Azimuth Time Altitude Azimuth Time Altitude Azimuth
Cosmos 1758 Rocket 4.1 18:07:09 10° NNW 18:11:29 64° W 18:15:46 10° S
CZ-2C R/B 4.2 18:09:19 10° NNE 18:13:51 41° E 18:18:18 10° S
SPOT 3 Rocket 3.8 18:09:20 10° SSE 18:14:35 80° WSW 18:19:50 10° NNW
Cosmos 921 Rocket 2.9 18:10:59 10° NNW 18:15:12 79° ENE 18:19:25 10° SE
Cosmos 1953 Rocket 3.7 18:14:33 10° NNW 18:19:02 84° W 18:23:32 10° S
Cosmos 1437 4.1 18:16:14 10° NNW 18:19:06 38° W 18:21:56 10° SSW
NOSS 2-1 (C) 3.6 18:15:27 10° W 18:19:09 78° NNW 18:23:53 10° ENE
Cosmos 1300 4.3 18:16:43 10° SE 18:19:21 18° E 18:21:59 10° NE
IGS 5A 4.3 18:17:19 10° SE 18:21:09 36° ENE 18:25:01 10° N
Cosmos 407 Rocket 4.4 18:18:52 10° SSE 18:23:06 26° ESE 18:27:20 10° NE
Cosmos 2219 Rocket 3.6 18:17:49 10° W 18:23:07 39° NNW 18:28:23 10° NE
NOSS 2-1 (D) 3.6 18:19:40 10° W 18:23:23 77° NNW 18:28:10 10° ENE
Cosmos 1953 2.3 18:21:52 10° SSW 18:25:51 88° ESE 18:29:54 10° NNE
Cosmos 2228 3.2 18:22:52 10° S 18:27:04 52° E 18:31:20 10° NNE
Meteor 1-11 4.4 18:22:38 10° NNW 18:28:28 83° WSW 18:34:13 10° SSE
Cosmos 1606 Rocket 3.7 18:25:02 10° S 18:29:24 58° E 18:33:50 10° NNE
Cosmos 1818 4.3 18:25:04 10° S 18:29:45 30° SE 18:34:28 10° ENE
ATLAS CENTAUR R/B 1.6 18:27:03 10° WNW 18:31:12 62° NNE 18:35:04 10° E
Cosmos 1908 3.5 18:28:10 10° S 18:31:54 47° E 18:35:41 10° NNE
ERS-1 Rocket 3.6 18:27:50 10° SE 18:32:32 41° ENE 18:37:16 10° NNW
ERBS 3.3 18:31:41 10° WSW 18:34:46 33° SSW 18:37:31 12° SE
COSMOS 2428 4.2 18:29:26 10° W 18:34:47 38° NNW 18:40:08 10° NE
Intercosmos 24 Rocket 4.5 18:30:36 10° SSW 18:34:56 79° WNW 18:38:32 10° NNE
Cosmos 1470 4.0 18:32:24 10° SW 18:36:11 46° WNW 18:40:01 10° N
Cosmos 2369 4.3 18:30:53 10° NW 18:36:25 49° NNE 18:41:52 10° ESE
Cosmos 220 Rocket 4.1 18:32:40 10° NNW 18:36:59 68° NE 18:41:05 11° SE
Landsat 7 4.1 18:33:00 10° SE 18:37:38 53° ENE 18:42:17 10° NNW
Cosmos 1943 3.4 18:32:52 10° SSW 18:38:20 50° ESE 18:43:50 10° NE
Cosmos 1461 4.2 18:34:23 10° WNW 18:38:32 39° SW 18:42:48 10° SSE
SPOT 1/Viking Rocket 3.9 18:34:05 10° SE 18:39:10 53° ENE 18:44:16 10° NNW
MetOp-B 4.2 18:34:49 10° SSE 18:40:11 78° ENE 18:45:35 10° NNW
CZ-2C R/B 4.5 18:37:33 10° SSW 18:42:00 36° W 18:46:23 10° NNW
CZ-4C R/B 2.8 18:37:51 10° WNW 18:44:05 80° NNE 18:51:38 10° E
Cosmos 2344 4.1 18:38:49 10° WNW 18:46:58 83° NNE 18:57:50 10° E
Cosmos 1697 Rocket 3.2 18:43:00 10° NW 18:48:36 54° NE 18:53:43 12° ESE
SAR-Lupe-2 4.5 18:45:57 10° NE 18:49:08 29° E 18:52:18 10° SSE
ADEOS Rocket 4.3 18:42:35 10° NNE 18:49:09 49° NW 18:55:04 10° SW
H-2A R/B 3.9 18:47:24 10° SSW 18:51:58 31° W 18:56:27 10° NNW
Cosmos 2151 4.0 18:48:56 10° N 18:52:41 30° ENE 18:55:38 14° ESE
CZ-2C R/B 2.7 18:48:25 10° NNE 18:53:33 56° ESE 18:58:38 10° S
Cosmos 2341 Rocket 4.1 18:47:33 10° NNW 18:53:58 88° ENE 19:00:24 10° SSE
Cosmos 1076 Rocket 3.7 18:50:25 10° N 18:54:37 54° ENE 18:58:15 14° SE
SPOT 5 3.0 18:57:34 15° SE 19:00:59 48° ENE 19:05:11 10° NNW
SL-16 R/B 2.9 18:56:00 10° WSW 19:01:37 60° NW 19:07:15 10° NE
SL-16 R/B 3.5 18:57:01 10° NW 19:02:15 35° NNE 19:07:28 10° E
Aureole 1 Rocket 4.1 18:57:44 10° S 19:04:34 53° ESE 19:09:52 10° NE
Cosmos 2058 3.0 19:00:42 10° N 19:04:48 62° ENE 19:08:05 15° SSE
Cosmos 1763 Rocket 3.5 19:00:06 10° NW 19:05:23 75° NE 19:09:33 16° SE
NOSS 3-3 (A) 4.1 19:00:16 10° SW 19:06:18 58° SE 19:13:13 10° ENE
NOSS 3-3 (C) 4.1 19:00:22 10° SW 19:06:24 58° SE 19:13:19 10° ENE
Cosmos 1726 3.0 19:02:50 10° SSW 19:06:31 54° WNW 19:10:13 10° N
Cosmos 2251 Rocket 3.7 19:01:38 10° SW 19:07:03 80° NW 19:12:29 10° NE
Cosmos 2360 Rocket 3.7 19:03:23 10° WNW 19:08:26 32° N 19:13:30 10° ENE
Cosmos 1814 Rocket 4.5 19:03:11 10° NNW 19:08:28 53° NE 19:12:37 16° ESE
Iridium 2 4.2 19:07:08 15° SSE 19:09:57 40° E 19:13:35 10° NNE
DMSP B5D2-2 4.0 19:05:32 10° NNE 19:10:48 79° ESE 19:16:03 10° SSW
Cosmos 2218 Rocket 4.0 19:05:24 10° NNW 19:11:37 79° ENE 19:17:37 11° SSE
NOSS 2-1 (E) 3.8 19:07:57 10° W 19:11:52 71° N 19:17:03 10° E
Cosmos 2322 Rocket 3.5 19:07:01 10° NW 19:12:14 35° NNE 19:17:25 10° E
Cosmos 1174 4.2 19:11:08 10° WNW 19:14:43 54° SW 19:17:51 18° SSE
Cosmos 1408 3.2 19:12:14 10° N 19:15:43 40° ENE 19:17:45 21° SE
Cosmos 2333 Rocket 3.8 19:10:49 10° WNW 19:15:57 34° N 19:21:05 10° ENE
Cosmos 1980 Rocket 2.7 19:11:20 10° NW 19:16:50 52° NNE 19:21:25 15° ESE
RESURS DK-1 2.4 19:13:33 10° NW 19:17:45 76° NE 19:20:33 20° SE
Cosmos 192 4.5 19:13:10 10° NW 19:18:09 76° WSW 19:22:07 16° SSE
MOS 1 Rocket 3.6 19:13:17 10° NNE 19:18:36 85° ESE 19:24:02 10° SSW
Terra 2.1 19:16:09 18° SE 19:19:34 54° ENE 19:24:14 10° NNW
USA 234 4.1 19:14:31 10° E 19:19:50 26° SE 19:25:08 10° S
Cosmos 540 Rocket 3.7 19:15:45 10° NNW 19:20:55 60° NE 19:24:35 19° SE
Cosmos-2242 4.5 19:20:13 18° ESE 19:21:41 21° E 19:24:57 10° NE
ATLAS 2AS CENTAUR R/B 4.3 19:16:07 10° WNW 19:22:34 30° WSW 19:28:36 10° S
Cosmos 1603 3.7 19:18:25 10° SW 19:24:04 89° WNW 19:29:44 10° NE
Cosmos 1892 2.7 19:20:21 10° NNW 19:24:16 74° ENE 19:26:53 20° SSE
Cosmos 2058 Rocket 3.1 19:20:14 10° SSW 19:24:46 90° ESE 19:29:19 10° NNE
Cosmos 1656 3.7 19:19:14 10° NW 19:24:59 86° SW 19:29:11 19° SE
SeaSat 1 3.3 19:21:19 10° NE 19:26:09 54° NW 19:30:57 10° WSW
Cosmos 2237 Rocket 3.7 19:22:05 10° W 19:27:21 37° NNW 19:32:38 10° NE
Resurs 01 Rocket 3.0 19:23:31 10° SSW 19:27:37 37° W 19:31:44 10° NNW
Iridium 4 Rocket 3.0 19:23:24 10° N 19:27:47 73° E 19:30:54 18° SSE
Okean 3 Rocket 4.0 19:23:55 10° N 19:28:14 49° ENE 19:30:50 22° SE
Cosmos 1455 3.6 19:28:47 20° ESE 19:29:38 21° E 19:32:36 10° NE
Cosmos 2360 4.4 19:24:40 10° NW 19:30:23 66° NE 19:34:31 19° ESE
SL-8 Rocket 4.2 19:25:57 10° NNW 19:32:15 75° W 19:38:34 10° S
Cosmos 2181 Rocket 4.0 19:28:17 10° S 19:34:27 65° E 19:40:34 10° NNE
Cosmos 1190 Rocket 4.0 19:29:40 10° SSW 19:34:54 62° ESE 19:40:08 10° NE
CARTOSAT-1 3.5 19:33:00 20° SSE 19:36:01 85° ENE 19:40:22 10° NNW
Nadezhda 1 Rocket 4.4 19:29:43 10° SSW 19:36:06 70° WNW 19:42:28 10° NNE
Cosmos 1140 Rocket 3.5 19:31:09 10° SSW 19:36:14 57° ESE 19:41:18 10° NE
Spot 2 Rocket 4.1 19:31:43 10° S 19:36:44 55° WSW 19:41:47 10° NNW
Cosmos 1726 Rocket 4.3 19:33:54 10° SSW 19:38:15 55° WNW 19:42:40 10° N
ALOS 2 4.5 19:36:21 12° E 19:39:03 20° NE 19:42:16 10° N
Cosmos 2278 3.8 19:34:06 10° NW 19:39:47 69° NE 19:43:39 21° ESE
Cosmos 1340 Rocket 3.0 19:35:50 10° SSW 19:39:54 76° WNW 19:43:57 10° NNE
Cosmos 1825 2.5 19:36:15 10° N 19:39:58 51° ENE 19:41:43 27° SE
Cosmos 1766 Rocket 3.9 19:35:59 10° N 19:40:24 53° ENE 19:42:50 25° SE
Cosmos 841 Rocket 3.5 19:35:25 10° NW 19:40:45 80° NE 19:44:08 23° SE
ATLAS 5 CENTAUR R/B 2.4 19:38:07 10° SSW 19:41:59 31° SE 19:46:19 10° ENE
Cosmos 2366 rocket 4.1 19:37:43 10° NNW 19:43:53 75° W 19:49:25 13° S
Meteor 2-12 Rocket 4.5 19:38:34 10° NNW 19:44:44 85° WSW 19:49:39 17° S
Cosmos 2084 3.6 19:41:01 10° WNW 19:45:32 82° NNE 19:48:40 19° E
Cosmos 1570 Rocket 4.1 19:40:35 10° NW 19:46:00 87° WSW 19:49:25 23° SSE
Elektron 3 4.0 19:41:31 10° W 19:46:12 79° S 19:48:06 22° E
Cosmos 468 Rocket 4.4 19:45:01 10° NW 19:50:08 58° WSW 19:53:40 20° S
Cosmos 2082 Rocket 4.2 19:51:41 11° E 19:51:41 11° E 19:53:02 10° ENE
COSMOS 2455 4.3 19:46:37 10° WNW 19:51:44 30° WSW 19:56:39 11° S
Cosmos 614 Rocket 4.0 19:48:01 10° SW 19:53:17 87° WNW 19:58:32 10° NE
Mayak 0.1 19:50:11 10° NE 19:53:27 22° E 19:54:00 21° E
Cosmos 1300 2.7 19:50:48 11° SSW 19:54:32 80° WNW 19:58:24 10° NNE
IGS 5A 4.3 19:53:17 14° S 19:56:35 46° W 20:00:39 10° NNW
Cosmos 1812 Rocket 3.5 19:56:43 20° S 19:59:36 70° ESE 20:03:57 10° NNE
SWARM A 4.2 20:00:06 39° SSE 20:01:07 62° E 20:04:27 10° N
ASTEX 1 3.8 19:59:42 27° SE 20:02:10 50° ENE 20:06:58 10° N
Nadezhda 3 Rocket 4.5 19:59:07 24° SE 20:02:35 44° E 20:08:28 10° NNE
Cosmos 676 Rocket 4.0 19:57:58 10° SSW 20:03:12 64° ESE 20:08:24 10° NE
Cosmos 407 Rocket 3.5 19:59:27 10° SW 20:04:37 85° NW 20:09:48 10° NE
COSMOS 2406 4.1 20:03:30 25° SE 20:04:44 27° ESE 20:09:28 10° NE
Cosmos 1833 Rocket 4.1 20:06:11 19° ESE 20:06:30 19° ESE 20:10:22 10° ENE
Cosmos 2219 Rocket 3.8 20:03:20 10° WNW 20:08:24 32° N 20:13:27 10° ENE
Cosmos 1356 Rocket 3.9 20:07:12 32° SE 20:08:30 42° E 20:12:31 10° NNE
NOSS 2-1 (C) 3.8 20:05:51 10° WNW 20:09:55 77° NNE 20:14:05 17° E
ATLAS CENTAUR R/B 1.3 20:06:10 10° WNW 20:10:10 60° SW 20:11:25 38° SSE
ERBS 4.3 20:08:13 10° WSW 20:10:26 16° SSW 20:10:29 16° SSW
ERS-1 Rocket 3.5 20:07:39 18° S 20:11:18 53° WSW 20:16:16 10° NNW
Cosmos 1818 3.5 20:07:21 10° SW 20:12:48 79° SSE 20:18:18 10° ENE
NOSS 2-1 (D) 3.8 20:10:04 10° WNW 20:14:09 78° NNE 20:18:12 18° E
Meteor 2-1 Rocket 4.3 20:11:13 17° S 20:15:53 74° ESE 20:21:50 10° NNE
COSMOS 2428 4.3 20:15:13 10° WNW 20:20:24 34° N 20:25:35 10° ENE
Thor Agena Rocket 4.4 20:16:03 10° NNE 20:20:32 31° E 20:21:45 27° ESE
Cosmos 2369 3.8 20:15:16 10° NW 20:20:54 67° SW 20:23:48 29° SSE
Cosmos 1943 3.8 20:16:45 10° WSW 20:22:24 60° NW 20:28:05 10° NE
Cosmos 2208 Rocket 4.2 20:17:53 10° NW 20:23:02 62° WSW 20:25:38 29° S
Cosmos 2239 Rocket 4.5 20:16:48 10° NNW 20:23:04 88° ENE 20:26:45 27° SSE
Cosmos 1743 Rocket 4.0 20:18:43 10° N 20:23:05 49° ENE 20:24:43 33° ESE
Cosmos 1408 Rocket 3.6 20:19:14 10° NNW 20:23:45 76° ENE 20:25:29 37° SSE
Cosmos 1821 Rocket 4.1 20:19:33 10° NNW 20:25:57 83° WSW 20:29:53 25° S
Cosmos 1954 Rocket 3.9 20:22:30 10° SSW 20:27:45 84° ESE 20:32:59 10° NE
Cosmos 1741 Rocket 4.3 20:27:12 30° SSE 20:29:26 48° ESE 20:34:34 10° NE
Cosmos 2151 3.4 20:26:08 10° NNW 20:30:16 55° W 20:32:13 28° SSW
Cosmos 1697 Rocket 3.0 20:27:10 10° NW 20:32:45 59° WSW 20:35:27 30° S
CZ-4C R/B 2.9 20:26:16 10° WNW 20:32:48 67° SW 20:37:07 28° SE
CZ-2C R/B 3.9 20:28:57 10° NNE 20:33:48 41° WNW 20:38:37 10° SW
Meteor 2-10 Rocket 3.6 20:31:30 31° S 20:34:00 63° E 20:39:25 10° NNE
Cosmos 1934 Rocket 4.0 20:28:12 10° NNW 20:34:34 81° ENE 20:37:51 30° SSE
SPOT 5 3.8 20:36:47 20° SSW 20:39:16 36° W 20:43:18 10° NNW
Cosmos 1633 3.2 20:36:40 10° N 20:40:05 40° ENE 20:40:36 38° E
Meteor 2-3 Rocket 3.7 20:35:51 10° NNW 20:41:41 88° WSW 20:44:26 33° SSE
Cosmos 1605 Rocket 4.0 20:38:50 10° NNW 20:44:58 70° ENE 20:47:54 33° SSE
SL-16 R/B 3.9 20:41:33 10° WNW 20:46:44 34° NNW 20:51:55 10° NE
Cosmos 1340 3.7 20:43:37 10° N 20:47:08 34° ENE 20:47:58 31° E
SL-16 R/B 2.5 20:41:37 10° NW 20:47:18 64° NE 20:50:30 26° ESE
STPSAT 2 (USA 217) 4.5 20:46:03 30° SSW 20:48:14 71° SE 20:52:44 10° NE
Aureole 1 Rocket 4.5 20:42:30 10° SW 20:49:11 56° NW 20:54:17 10° NNE
Cosmos 1408 4.1 20:47:26 10° NNW 20:50:41 31° W 20:52:05 23° SW
Helios 1A 3.8 20:50:14 31° E 20:51:32 40° ENE 20:55:30 10° N
Cosmos 2360 Rocket 3.0 20:48:10 10° NW 20:53:37 48° NNE 20:57:49 17° E
RESURS DK-1 3.7 20:51:56 10° WNW 20:55:29 28° WSW 20:56:27 25° SW
Intercosmos 25 4.0 20:56:58 31° ENE 20:56:58 31° ENE 20:59:28 10° NNE
NOSS 3-3 (A) 4.2 20:50:41 10° WSW 20:57:08 83° NNW 21:04:35 10° ENE
NOSS 3-3 (C) 4.2 20:50:47 10° WSW 20:57:13 83° NNW 21:04:41 10° ENE
Cosmos 2322 Rocket 2.5 20:51:34 10° NW 20:57:14 64° NE 21:00:21 27° ESE
Cosmos 2221 3.3 20:57:01 34° ESE 20:57:28 35° E 21:01:29 10° NNE
Terra 2.9 20:55:02 22° SSW 20:57:32 37° W 21:01:59 10° NNW
Cosmos-2242 3.0 20:57:02 36° SSW 20:58:46 80° WNW 21:03:10 10° NNE
Cosmos 1980 Rocket 2.3 20:55:31 10° NW 21:01:04 61° WSW 21:03:11 37° S
Cosmos 1842 Rocket 4.0 21:00:58 41° ESE 21:01:31 44° E 21:05:40 10° NNE
Cosmos 2333 Rocket 3.5 20:56:14 10° NW 21:01:32 38° NNE 21:06:50 10° E
Cosmos 2344 4.3 20:53:00 10° WNW 21:01:37 65° SW 21:08:39 26° SSE
Cosmos 540 Rocket 4.3 20:57:35 10° NW 21:02:25 40° WSW 21:04:25 28° SSW
NOSS 2-1 (E) 3.8 20:58:16 10° WNW 21:02:37 86° SSW 21:05:34 29° ESE
SeaSat 1 4.5 20:58:49 10° NE 21:03:03 29° NNW 21:07:18 10° WNW
USA 234 3.4 20:57:42 10° E 21:04:00 48° SSE 21:10:19 10° SW
Cosmos 1455 2.5 21:03:41 39° SW 21:04:55 65° WNW 21:08:46 10° N
Cosmos 2237 Rocket 3.9 21:07:39 10° WNW 21:12:46 33° N 21:17:54 10° ENE
Cosmos 1869 4.1 21:14:23 35° E 21:14:23 35° E 21:18:02 10° NNE
ALOS 2 2.6 21:13:44 50° SE 21:14:48 74° ENE 21:19:13 10° NNW
Cosmos 1238 Rocket 3.5 21:12:09 10° N 21:14:36 29° ENE 21:14:36 29° ENE
Cosmos 1825 3.8 21:12:05 10° NNW 21:15:19 26° W 21:16:32 22° WSW
Cosmos 1850 Rocket 3.9 21:13:06 28° SSW 21:15:57 87° SE 21:21:11 10° NE
Sich 1 3.5 21:11:46 10° N 21:16:10 54° ENE 21:17:13 43° ESE
JB-3 4.1 21:15:15 10° NNE 21:19:06 76° ESE 21:19:27 68° SSE
Cosmos 2278 4.4 21:18:29 10° NW 21:23:46 41° WSW 21:25:34 32° SSW
Cosmos 773 Rocket 4.3 21:19:48 10° NNW 21:24:58 62° NE 21:27:09 34° ESE
Cosmos 2084 3.7 21:20:39 10° WNW 21:24:59 51° SW 21:25:12 51° SSW
ATLAS 5 CENTAUR R/B 1.6 21:21:32 10° WSW 21:26:05 81° SSE 21:31:25 10° ENE
Spot 4 4.1 21:26:02 41° SSW 21:27:28 58° WSW 21:32:14 10° NNW
Mayak -1.2 21:25:21 10° NNE 21:29:32 76° WNW 21:30:35 49° SW
SL-24 R/B - RUBIN 2 4.4 21:23:24 10° WSW 21:29:32 87° NNW 21:36:15 10° ENE
EO 1 Del DPAF 3.0 21:25:50 10° NNE 21:29:38 87° ESE 21:29:57 74° S
Cosmos 1500 Rocket 3.8 21:26:28 10° NNW 21:30:44 59° W 21:31:38 47° SW
Cosmos 1805 Rocket 3.5 21:27:10 10° NNW 21:31:39 85° ENE 21:32:32 58° SSE
Cosmos 1862 3.3 21:28:27 10° NNW 21:32:33 71° ENE 21:33:03 61° ESE
Cosmos 2082 Rocket 2.6 21:33:29 39° SE 21:34:16 41° ESE 21:39:34 10° NE
Cosmos 1346 Rocket 2.8 21:32:30 10° NNW 21:36:32 68° ENE 21:37:00 60° ESE
Meteor 1-27 4.2 21:37:03 41° S 21:39:09 77° ESE 21:45:02 10° NNE
ASTEX 1 4.4 21:39:12 26° SW 21:41:21 39° W 21:46:01 10° NNW
Cosmos 968 Rocket 4.3 21:47:07 34° ESE 21:47:35 34° ESE 21:52:18 10° NE
Nadezhda 3 Rocket 4.5 21:43:48 22° SW 21:47:58 58° WNW 21:54:11 10° NNE
ATLAS CENTAUR R/B 3.3 21:45:51 10° W 21:47:36 16° WSW 21:47:36 16° WSW
COSMOS 2406 3.1 21:45:30 30° SW 21:48:26 85° SE 21:54:13 10° NE
Cosmos 1833 Rocket 2.7 21:47:49 44° S 21:49:30 65° SE 21:55:07 10° NE
SL-16 R/B 3.9 21:44:17 10° ESE 21:49:44 33° NE 21:55:11 10° NNW
Cosmos 1633 Rocket 3.2 21:46:11 10° NNW 21:50:38 65° ENE 21:51:27 53° ESE
Cosmos 2219 Rocket 3.0 21:48:02 10° NW 21:53:31 49° NNE 21:58:30 12° ESE
Cosmos 2237 4.2 21:49:41 10° NW 21:55:27 80° NE 21:58:00 35° SE
Cosmos 1818 4.0 21:51:13 10° W 21:56:40 63° N 22:02:06 10° ENE
Thor Agena Rocket 3.7 21:55:14 10° NNE 22:00:17 70° WNW 22:02:20 36° SW
NOSS 2-1 (C) 4.1 21:56:04 10° WNW 22:00:28 56° SW 22:01:25 49° S
Cosmos 1459 Rocket 4.0 21:54:20 10° NNW 22:00:47 86° E 22:03:14 41° SSE
Cosmos 1400 Rocket 2.8 22:00:52 63° ESE 22:00:54 63° ESE 22:04:50 10° NNE
NOSS 2-1 (D) 4.1 22:00:17 10° WNW 22:04:43 54° SW 22:05:32 49° S
COSMOS 2428 3.4 22:00:11 10° NW 22:05:48 53° NNE 22:10:48 13° ESE
Cosmos 1151 Rocket 4.3 22:05:38 27° E 22:06:04 28° E 22:09:46 10° NNE
Cosmos 2322 4.0 22:00:58 10° NW 22:06:42 66° NE 22:10:11 24° ESE
Cosmos 1727 Rocket 4.0 22:06:40 42° S 22:08:58 77° E 22:15:20 10° NNE
Cosmos 1802 Rocket 3.9 22:04:19 10° NNW 22:10:39 85° ENE 22:12:57 42° SSE
Cosmos 2333 4.5 22:05:29 10° NW 22:11:07 66° NE 22:14:29 24° ESE
Cosmos 1725 Rocket 4.1 22:06:34 10° NNW 22:12:55 70° ENE 22:15:34 37° SE
Cosmos 2016 Rocket 4.0 22:08:21 10° NNW 22:14:47 81° ENE 22:17:17 40° SSE
Cosmos 1633 3.9 22:11:43 10° NNW 22:14:44 29° W 22:14:44 29° W
Cosmos 2100 Rocket 4.0 22:12:09 10° NNW 22:18:21 74° W 22:20:33 42° S
CZ-4C R/B 3.8 22:14:52 10° WNW 22:20:45 30° WSW 22:22:18 28° SW
Cosmos 1340 3.5 22:19:15 10° NNW 22:22:43 40° W 22:22:43 40° W
Cosmos 1441 Rocket 4.4 22:21:36 10° N 22:25:09 35° ENE 22:25:58 31° E
Helios 1A 3.6 22:26:51 41° WSW 22:27:08 42° W 22:31:10 10° NNW
SL-08 R/B 4.4 22:21:37 10° NNW 22:27:51 83° ENE 22:30:15 41° SSE
Meteor 2-2 Rocket 4.2 22:25:57 42° SSW 22:27:57 80° WNW 22:33:39 10° NNE
Landsat 4 3.6 22:26:05 10° NNE 22:29:55 78° ESE 22:29:55 78° ESE
Cosmos 2173 Rocket 4.0 22:24:42 10° NNW 22:30:45 67° W 22:32:48 42° SSW
SL-16 R/B 2.6 22:25:57 10° NW 22:31:21 46° WSW 22:32:21 42° SW
Cosmos 923 Rocket 4.2 22:26:18 10° NNW 22:31:33 68° NE 22:33:55 33° SE
SL-16 R/B 3.8 22:27:01 10° NW 22:32:14 35° NNE 22:37:26 10° E
Cosmos 1933 4.3 22:32:59 34° E 22:33:11 34° E 22:36:51 10° NNE
Cosmos 1503 Rocket 4.2 22:33:35 47° SSE 22:34:29 54° ESE 22:39:34 10° NE
Cosmos 2221 3.2 22:33:50 37° WSW 22:34:59 47° WNW 22:39:15 10° N
Cosmos 1666 Rocket 3.8 22:32:19 10° NNW 22:36:33 52° W 22:36:56 50° WSW
Cosmos 1933 Rocket 3.6 22:32:20 10° NNW 22:36:48 74° ENE 22:37:35 57° SE
Cosmos 2360 Rocket 2.1 22:32:21 10° NW 22:37:59 71° SW 22:39:34 47° SSE
Cosmos 2322 Rocket 2.5 22:35:50 10° NW 22:41:13 46° WSW 22:42:08 42° SW
Cosmos 1602 4.3 22:39:06 10° N 22:42:57 50° ENE 22:43:33 45° E
Resurs 1-4 Rocket 4.2 22:40:18 10° NE 22:43:43 17° E 22:46:24 12° ESE
Cosmos 1980 Rocket 3.9 22:40:26 10° WNW 22:44:05 18° W 22:44:56 17° WSW
DELTA 2 DEB (DPAF) 4.5 22:43:29 43° ESE 22:44:44 61° ENE 22:49:09 10° NNW
Nimbus 7 Rocket 4.5 22:40:14 10° NNE 22:46:07 72° WNW 22:48:38 36° SW
Cosmos 2333 Rocket 2.3 22:40:51 10° NW 22:46:34 78° NE 22:49:56 25° SE
USA 234 3.2 22:41:15 10° E 22:47:44 62° S 22:54:13 10° WSW
CZ-4 R/B 4.2 22:43:34 10° NNE 22:48:23 55° ESE 22:49:27 46° SE
NOSS 3-3 (A) 4.4 22:41:44 10° WNW 22:48:30 81° NNE 22:56:18 10° E
NOSS 3-3 (C) 4.4 22:41:49 10° WNW 22:48:35 81° N 22:56:23 10° E
CZ-4C R/B 3.9 22:48:15 40° E 22:48:44 43° ENE 22:52:04 10° N
Cosmos 1680 Rocket 3.7 22:44:11 10° NNW 22:49:26 71° NE 22:51:57 31° SE
Cosmos 1869 4.1 22:49:55 37° W 22:50:37 41° WNW 22:54:27 10° N
Cosmos 1315 Rocket 2.7 22:50:49 74° SSE 22:51:05 79° ESE 22:55:14 10° NNE
ALOS 2 4.1 22:51:07 24° W 22:51:36 24° W 22:55:13 10° NW
Cosmos 1538 Rocket 4.1 22:47:02 10° NW 22:52:15 60° WSW 22:53:18 50° SSW
Sich 1 4.2 22:49:44 10° NNW 22:53:41 32° W 22:54:11 31° WSW
Cosmos 1238 Rocket 4.1 22:51:50 10° NNW 22:53:30 22° WNW 22:53:30 22° WNW
IRAS Rocket 4.3 22:54:11 46° SSW 22:55:46 65° WSW 23:01:25 10° NNW
Cosmos 2237 Rocket 2.9 22:52:23 10° NW 22:57:57 53° NNE 23:03:30 10° ESE
Cosmos 1328 Rocket 3.5 22:59:15 60° SE 22:59:48 68° E 23:04:07 10° NNE
Cosmos 1606 2.9 22:59:41 57° ESE 22:59:48 58° E 23:03:39 10° NNE
Meteor 1-25 Rocket 4.2 22:54:57 10° NNW 23:00:40 76° WSW 23:02:32 45° S
Helios 1B rocket 2.4 22:58:03 10° NNE 23:02:11 68° ESE 23:02:34 63° SE
CZ-2D R/B 3.9 22:58:46 10° NE 23:03:03 23° E 23:05:54 16° SE
NOSS 0 Rocket 4.1 22:57:53 10° NW 23:04:05 72° NE 23:10:16 10° ESE
Mayak 1.0 23:01:34 10° N 23:04:33 19° NW 23:07:09 11° W
Cosmos 1500 4.5 23:01:09 10° N 23:04:38 34° ENE 23:05:49 28° ESE
Cosmos 1000 Rocket 4.5 23:03:58 40° SSW 23:06:26 83° WNW 23:12:48 10° NNE
Cosmos 2228 Rocket 4.1 23:05:37 33° SE 23:06:44 39° E 23:11:01 10° NNE
Cosmos 1486 Rocket 4.1 23:06:07 39° SW 23:08:04 73° NW 23:13:23 10° NNE
SJ 16-02 3.7 23:08:33 11° ESE 23:09:57 13° E 23:11:51 10° ENE
SME Rocket 3.1 23:04:58 10° NNE 23:10:07 81° WNW 23:10:56 57° SW
ATLAS 5 CENTAUR R/B 2.1 23:06:08 10° W 23:10:56 73° N 23:16:36 10° E
Cosmos 1346 Rocket 4.4 23:09:24 10° NW 23:12:30 22° W 23:12:30 22° W
Cosmos 1782 3.7 23:14:23 34° ESE 23:14:57 36° E 23:18:37 10° NNE
Cosmos 2061 Rocket 4.4 23:10:03 10° NNW 23:16:03 51° W 23:18:09 36° SW
Cosmos 2082 Rocket 2.4 23:15:17 30° WSW 23:18:11 70° NW 23:23:54 10° NE
Cosmos 1470 Rocket 4.1 23:16:40 10° NNW 23:20:52 43° W 23:21:14 42° WSW
Meteor 1-14 Rocket 4.3 23:16:52 10° NNW 23:22:53 78° WSW 23:25:12 40° S
UNK 3.9 23:24:17 36° SE 23:26:08 70° ENE 23:30:49 10° NNW
Cosmos 1733 Rocket 4.1 23:22:02 10° N 23:26:14 41° ENE 23:28:46 21° SE
Cosmos 1633 Rocket 4.4 23:24:25 10° NNW 23:28:08 26° W 23:28:32 26° W
ERS-2 3.8 23:26:23 17° ESE 23:28:35 31° ENE 23:31:52 10° N
Cosmos 968 Rocket 3.6 23:27:06 37° WSW 23:29:08 70° NW 23:34:26 10° NNE
Meteor 1-26 Rocket 4.5 23:27:04 37° SSE 23:29:20 64° E 23:35:02 10° NNE
H-2A R/B 4.1 23:26:46 10° ESE 23:30:12 25° NE 23:33:37 10° N
SL-27 R/B 2.4 23:30:34 74° NNW 23:30:34 74° NNW 23:33:46 10° NNE
SL-16 R/B 2.5 23:29:17 28° SSE 23:32:50 88° ENE 23:39:07 10° NNW
Cosmos 2112 Rocket 3.9 23:27:53 10° NW 23:33:07 77° WSW 23:35:07 38° SSE
COSMOS 2406 4.3 23:27:51 10° W 23:33:18 43° NNW 23:38:48 10° NE
Cosmos 1666 4.2 23:30:12 10° N 23:33:38 33° ENE 23:35:38 20° ESE
Cosmos 1833 Rocket 3.4 23:29:29 17° WSW 23:33:42 51° NNW 23:39:14 10° NE
Cosmos 1400 Rocket 4.4 23:36:27 22° W 23:37:43 26° NW 23:41:06 10° N
Cosmos 2219 Rocket 2.1 23:32:12 10° NW 23:37:47 68° SW 23:40:10 35° SSE
Cosmos 1818 3.9 23:35:18 10° WNW 23:40:46 69° NNE 23:46:14 10° E
Cosmos 1777 Rocket 4.2 23:39:29 41° S 23:41:06 60° ESE 23:46:17 10° NE
PSLV R/B 3.6 23:37:37 10° NNE 23:42:02 79° WNW 23:43:09 51° SW
Cosmos 44 2.9 23:41:50 56° SW 23:42:40 77° SSE 23:47:04 10° ENE
Cosmos 1151 Rocket 3.3 23:42:28 47° WSW 23:43:23 59° WNW 23:47:41 10° N
Cosmos 158 Rocket 3.9 23:38:07 10° NW 23:43:27 73° WSW 23:45:31 37° SSE
SL-19 R/B 4.4 23:40:21 10° NNE 23:46:18 74° ESE 23:48:37 37° S
MOS 1-B Rocket 4.4 23:43:37 10° NNE 23:49:18 56° WNW 23:52:40 28° SW
COSMOS 2428 2.7 23:44:38 10° NW 23:50:17 62° WSW 23:52:47 33° S
Cosmos 1072 Rocket 4.4 23:44:06 10° NNW 23:50:18 90° E 23:53:47 28° SSE
Cosmos 2322 4.1 23:45:22 10° NW 23:50:48 45° WSW 23:52:05 38° SSW
Cosmos 1607 3.9 23:48:20 31° SW 23:51:31 84° SSE 23:57:51 10° ENE
Cosmos 2233 Rocket 4.3 23:47:15 10° NNW 23:53:20 51° W 23:55:42 34° SW
Meteor 1-29 3.1 23:50:27 10° NNE 23:53:49 58° WNW 23:54:00 56° W
CZ-4B R/B 4.4 23:50:59 10° NNE 23:55:30 38° E 23:57:44 24° SSE
